CUBESAT XI-V

Last updated on Thu Nov 21 2024 00:03:02 GMT+0000 (Coordinated Universal Time)

1 28895U 05043F 24325.62203731 .00004061 00000+0 69407-3 0 9993 2 28895 98.2236 102.0500 0014585 220.6070 139.4048 14.69385056 17411
UTC large
Height (km)
Speed (km/s)
/
Latitude / Longitude
Inclination (degrees)
Orbital Period (minutes)
Azimuth
Elevation
Range (km)
Doppler Factor

Next 0 passes for location: London (51.5072 / 0.1276)

Sorry there are no passes over London.